Home > Weather > St. Albert > Past weeks

Flag for Canada Past Weather in St. Albert, Alberta, Canada — Yesterday and Last 2 Weeks

Now
65 °F

Mild.


Feels Like: 65 °F
Forecast: 54 / 68 °F
Wind: 13 mph from North

Location: Edmonton Municipal

Current Time: Jun 24, 2016 at 4:17:03 PM

Latest Report: Jun 24, 2016 at 3:00 PM


Visibility: N/A

Pressure: 29.78 "Hg (27.59 "Hg at 653m altitude)

Humidity: 62%

Dew Point: 52 °F

Location of St. AlbertLocation

Past Weather in St. Albert — Graph

°F

St. Albert Temperature Yesterday

Maximum temperature yesterday: 74 °F (at 2:00 PM)
Minimum temperature yesterday: 54 °F (at 5:00 AM)
Average temperature yesterday: 64 °F

High & Low Weather Summary for the Past Weeks

 TemperatureHumidityPressure
High77 °F (Jun 20, 5:00 PM)95% (Jun 12, 4:00 AM)30.19 "Hg (Jun 12, 4:00 AM)
Low44 °F (Jun 16, 5:00 AM)19% (Jun 15, 7:00 PM)29.50 "Hg (Jun 14, 8:00 PM)
Average60 °F59%29.85 "Hg
* Reported Jun 9 3:00 PM — Jun 24 3:00 PM, St. Albert, Weather by CustomWeather, © 2016

Note: Actual official high and low records may vary slightly from our data, if they occured in-between our weather recording intervals... More about our weather records

Advertising

St. Albert Weather History for the Previous 24 Hours

Scroll right to see more
 ConditionsComfort  
Time TempWeatherWind HumidityBarometerVisibility
3:00 PM
Fri, Jun 24
65 °FMild.13 mph62%29.78 "HgN/A
2:00 PM68 °FMild.10 mph65%29.76 "HgN/A
1:00 PM64 °FMild.9 mph70%29.77 "HgN/A
12:00 PM64 °FMild.10 mph70%29.77 "HgN/A
11:00 AM65 °FMild.6 mph65%29.77 "HgN/A
10:00 AM63 °FMild.5 mph68%29.77 "HgN/A
9:00 AM61 °FCool.6 mph73%29.77 "HgN/A
8:00 AM59 °FCool.6 mph77%29.78 "HgN/A
7:00 AM56 °FCool.8 mph78%29.78 "HgN/A
6:00 AM54 °FCool.5 mph84%29.77 "HgN/A
5:00 AM54 °FCool.7 mph85%29.76 "HgN/A
4:00 AM54 °FCool.7 mph88%29.76 "HgN/A
3:00 AM57 °FCool.3 mph81%29.75 "HgN/A
2:00 AM58 °FCool.5 mph80%29.76 "HgN/A
1:00 AM59 °FCool.7 mph82%29.77 "HgN/A
12:00 AM58 °FCool.6 mph87%29.77 "HgN/A
11:00 PM
Thu, Jun 23
57 °FCool.3 mph88%29.78 "HgN/A
10:00 PM56 °FCool.6 mph92%29.78 "HgN/A
9:00 PM58 °FCool.9 mph87%29.80 "HgN/A
8:00 PM58 °FCool.15 mph87%29.80 "HgN/A
7:00 PM62 °FCool.14 mph75%29.81 "HgN/A
6:00 PM72 °FMild.6 mph40%29.77 "HgN/A
5:00 PM73 °FMild.5 mph39%29.77 "HgN/A
4:00 PM73 °FMild.8 mph41%29.79 "HgN/A
Weather by CustomWeather, © 2016

See weather overviewHow to use our weather pages